Location: Artiguedieu
(43.5000°N, 0.5454°E)
Time: 10:24:53
(UTC+00:00)

Vanguard 1 Rocket - Pass Details

Date: 29 July 2021
Orbit: 650 x 4226 km, 34.3° (Epoch: 24 September)

Event Time Altitude Azimuth Distance (km) Brightness Sun altitude
Rises 07:52:19 0° 201° (SSW) 8,357 12.2 32.2°
Reaches altitude 10° 08:00:39 10° 189° (S) 6,994 12.0 33.7°
Maximum altitude 08:14:56 22° 148° (SSE) 4,974 11.9 36.2°
Drops below altitude 10° 08:24:59 10° 105° (ESE) 4,848 12.4 38.0°
Sets 08:29:09 0° 91° (E) 5,330 12.2 38.8°
